TimeAKST,TemperatureF,Dew PointF,Humidity,Sea Level PressureIn,VisibilityMPH,Wind Direction,Wind SpeedMPH,Gust SpeedMPH,PrecipitationIn,Events,Conditions,WindDirDegrees,DateUTC
12:16 AM,35.6,30.2,81,29.42,10.0,SW,6.9,-,N/A,,Clear,230,2013-01-04 09:16:00
12:36 AM,35.6,30.2,81,29.41,10.0,South,3.5,-,N/A,,Clear,190,2013-01-04 09:36:00
12:56 AM,33.8,30.2,87,29.42,10.0,SE,3.5,-,N/A,,Clear,140,2013-01-04 09:56:00
1:16 AM,33.8,30.2,87,29.43,10.0,SSE,3.5,-,N/A,,Mostly Cloudy,160,2013-01-04 10:16:00
1:36 AM,33.8,30.2,87,29.44,10.0,SE,5.8,-,N/A,,Mostly Cloudy,140,2013-01-04 10:36:00
1:56 AM,33.8,30.2,87,29.43,10.0,South,5.8,-,N/A,,Clear,190,2013-01-04 10:56:00
2:16 AM,33.8,30.2,87,29.44,10.0,SSE,5.8,-,N/A,,Clear,160,2013-01-04 11:16:00
2:56 AM,33.8,30.2,87,29.46,10.0,South,8.1,-,N/A,,Partly Cloudy,170,2013-01-04 11:56:00
3:16 AM,33.8,30.2,87,29.46,10.0,SSE,6.9,-,N/A,,Scattered Clouds,160,2013-01-04 12:16:00
3:36 AM,33.8,30.2,87,29.46,10.0,SSE,3.5,-,N/A,,Partly Cloudy,150,2013-01-04 12:36:00
4:16 AM,33.8,30.2,87,29.48,10.0,Calm,Calm,-,N/A,,Mostly Cloudy,0,2013-01-04 13:16:00
4:36 AM,33.8,30.2,87,29.48,10.0,South,4.6,-,N/A,,Overcast,180,2013-01-04 13:36:00
4:56 AM,35.6,33.8,93,29.48,10.0,WSW,8.1,-,N/A,,Overcast,240,2013-01-04 13:56:00
5:16 AM,33.8,32.0,93,29.49,10.0,Calm,Calm,-,N/A,,Mostly Cloudy,0,2013-01-04 14:16:00
5:36 AM,33.8,33.8,100,29.48,10.0,Calm,Calm,-,N/A,,Mostly Cloudy,0,2013-01-04 14:36:00
5:56 AM,35.6,33.8,93,29.48,10.0,South,8.1,-,N/A,,Overcast,170,2013-01-04 14:56:00
6:16 AM,33.8,33.8,100,29.48,10.0,South,6.9,-,N/A,,Scattered Clouds,170,2013-01-04 15:16:00
6:36 AM,35.6,33.8,93,29.49,10.0,SSE,6.9,-,N/A,,Mostly Cloudy,160,2013-01-04 15:36:00
6:56 AM,35.6,33.8,93,29.49,10.0,South,8.1,-,N/A,,Overcast,170,2013-01-04 15:56:00
7:16 AM,35.6,33.8,93,29.47,10.0,South,13.8,-,N/A,,Mostly Cloudy,190,2013-01-04 16:16:00
7:36 AM,35.6,33.8,93,29.47,10.0,South,10.4,-,N/A,,Scattered Clouds,180,2013-01-04 16:36:00
7:56 AM,35.6,33.8,93,29.48,10.0,SSE,13.8,18.4,N/A,,Mostly Cloudy,160,2013-01-04 16:56:00
8:16 AM,35.6,33.8,93,29.47,10.0,South,17.3,-,N/A,,Mostly Cloudy,170,2013-01-04 17:16:00
8:36 AM,35.6,33.8,93,29.46,10.0,SSE,17.3,-,N/A,,Mostly Cloudy,160,2013-01-04 17:36:00
8:56 AM,35.6,33.8,93,29.46,9.0,SSE,15.0,26.5,N/A,,Mostly Cloudy,150,2013-01-04 17:56:00
9:16 AM,33.8,32.0,93,29.47,9.0,SSE,11.5,-,N/A,,Overcast,160,2013-01-04 18:16:00
9:36 AM,35.6,35.6,100,29.47,10.0,SE,10.4,-,N/A,,Mostly Cloudy,140,2013-01-04 18:36:00
9:56 AM,35.6,33.8,93,29.46,10.0,SE,11.5,-,N/A,,Mostly Cloudy,140,2013-01-04 18:56:00
10:16 AM,35.6,35.6,100,29.46,10.0,SE,13.8,20.7,N/A,,Mostly Cloudy,140,2013-01-04 19:16:00
10:36 AM,37.4,35.6,93,29.46,10.0,SSE,15.0,24.2,N/A,,Mostly Cloudy,150,2013-01-04 19:36:00
10:56 AM,35.6,33.8,93,29.46,9.0,SSE,11.5,18.4,N/A,,Mostly Cloudy,150,2013-01-04 19:56:00
11:16 AM,35.6,33.8,93,29.45,10.0,SE,11.5,17.3,N/A,,Mostly Cloudy,140,2013-01-04 20:16:00
11:36 AM,37.4,33.8,87,29.45,10.0,SSE,12.7,21.9,N/A,,Mostly Cloudy,150,2013-01-04 20:36:00
11:56 AM,37.4,33.8,87,29.45,10.0,SE,15.0,21.9,N/A,,Overcast,140,2013-01-04 20:56:00
12:16 PM,37.4,33.8,87,29.44,10.0,SE,15.0,19.6,N/A,,Overcast,140,2013-01-04 21:16:00
12:36 PM,37.4,33.8,87,29.42,10.0,SSE,18.4,25.3,N/A,,Overcast,150,2013-01-04 21:36:00
12:56 PM,37.4,32.0,81,29.41,10.0,SE,20.7,25.3,N/A,,Overcast,140,2013-01-04 21:56:00
1:16 PM,37.4,32.0,81,29.40,10.0,SSE,17.3,21.9,N/A,,Overcast,150,2013-01-04 22:16:00
1:36 PM,37.4,33.8,87,29.39,10.0,SE,16.1,24.2,N/A,,Overcast,140,2013-01-04 22:36:00
1:56 PM,37.4,33.8,87,29.38,10.0,SE,12.7,26.5,N/A,,Overcast,140,2013-01-04 22:56:00
2:16 PM,37.4,33.8,87,29.35,10.0,SE,16.1,21.9,N/A,,Overcast,140,2013-01-04 23:16:00
2:36 PM,37.4,33.8,87,29.34,8.0,SE,18.4,28.8,N/A,,Overcast,140,2013-01-04 23:36:00
2:56 PM,35.6,33.8,93,29.33,7.0,SE,18.4,29.9,N/A,,Overcast,140,2013-01-04 23:56:00
3:16 PM,35.6,33.8,93,29.31,7.0,SE,20.7,32.2,N/A,,Overcast,140,2013-01-05 00:16:00
3:36 PM,35.6,33.8,93,29.30,3.0,SSE,18.4,35.7,N/A,,Overcast,150,2013-01-05 00:36:00
3:56 PM,35.6,33.8,93,29.30,3.0,SSE,26.5,35.7,N/A,,Overcast,150,2013-01-05 00:56:00
4:16 PM,33.8,33.8,100,29.29,2.5,SE,19.6,31.1,N/A,,Overcast,140,2013-01-05 01:16:00
4:36 PM,33.8,33.8,100,29.27,2.0,SE,17.3,27.6,N/A,,Overcast,140,2013-01-05 01:36:00
4:56 PM,33.8,33.8,100,29.27,2.5,SE,17.3,25.3,N/A,,Overcast,140,2013-01-05 01:56:00
5:16 PM,33.8,33.8,100,29.25,1.5,SSE,17.3,27.6,N/A,,Overcast,150,2013-01-05 02:16:00
5:36 PM,33.8,33.8,100,29.26,1.5,SSE,20.7,27.6,N/A,,Overcast,150,2013-01-05 02:36:00
5:56 PM,33.8,33.8,100,29.24,1.2,SE,18.4,34.5,N/A,,Overcast,140,2013-01-05 02:56:00
6:16 PM,33.8,33.8,100,29.24,1.2,SE,12.7,24.2,N/A,,Overcast,140,2013-01-05 03:16:00
6:36 PM,35.6,33.8,93,29.24,2.5,SE,18.4,25.3,N/A,,Overcast,140,2013-01-05 03:36:00
6:56 PM,35.6,33.8,93,29.22,2.5,SE,23.0,33.4,N/A,,Overcast,140,2013-01-05 03:56:00
7:16 PM,35.6,35.6,100,29.22,2.5,SSE,25.3,35.7,N/A,,Overcast,150,2013-01-05 04:16:00
7:36 PM,35.6,35.6,100,29.22,2.5,SSE,24.2,32.2,N/A,,Overcast,150,2013-01-05 04:36:00
7:56 PM,35.6,35.6,100,29.21,2.5,SSE,19.6,31.1,N/A,,Overcast,150,2013-01-05 04:56:00
8:16 PM,37.4,35.6,93,29.22,10.0,SSE,18.4,31.1,N/A,,Overcast,150,2013-01-05 05:16:00
8:36 PM,37.4,35.6,93,29.22,9.0,SSE,21.9,32.2,N/A,,Overcast,150,2013-01-05 05:36:00
8:56 PM,37.4,35.6,93,29.22,5.0,SSE,16.1,27.6,N/A,,Overcast,150,2013-01-05 05:56:00
9:16 PM,37.4,35.6,93,29.22,3.0,SSE,23.0,29.9,N/A,,Overcast,150,2013-01-05 06:16:00
9:36 PM,37.4,37.4,100,29.21,4.0,SSE,21.9,28.8,N/A,,Overcast,150,2013-01-05 06:36:00
9:56 PM,37.4,37.4,100,29.19,8.0,SSE,19.6,29.9,N/A,,Overcast,150,2013-01-05 06:56:00
10:16 PM,37.4,37.4,100,29.18,7.0,SSE,21.9,27.6,N/A,,Overcast,150,2013-01-05 07:16:00
10:36 PM,37.4,37.4,100,29.19,10.0,SSE,17.3,-,N/A,,Overcast,150,2013-01-05 07:36:00
10:56 PM,37.4,37.4,100,29.20,10.0,SSE,16.1,24.2,N/A,,Overcast,150,2013-01-05 07:56:00
11:16 PM,37.4,37.4,100,29.19,10.0,SE,12.7,20.7,N/A,,Overcast,140,2013-01-05 08:16:00
11:36 PM,37.4,37.4,100,29.20,10.0,SE,11.5,17.3,N/A,,Overcast,140,2013-01-05 08:36:00
11:56 PM,37.4,37.4,100,29.19,10.0,SE,11.5,18.4,N/A,,Mostly Cloudy,140,2013-01-05 08:56:00